Location: OLV Amersfoort
(52.1552°N, 5.3872°E)
Time: 01:54:29
(UTC+02:00)

ISS - Visible Passes

Search period start: 20 September 2014 00:00
Search period end: 30 September 2014 00:00
Orbit: 414 x 417 km, 51.6° (Epoch: 19 September)

Date Brightness Start Highest point End Pass type
(mag) Time Alt. Az. Time Alt. Az. Time Alt. Az.
20 Sep -1.4 04:43:48 26° ESE 04:43:48 26° ESE 04:45:45 10° E visible
20 Sep -3.3 06:16:41 16° WSW 06:19:12 78° S 06:22:32 10° E visible
21 Sep -3.3 05:29:48 54° SW 05:30:22 68° SSE 05:33:42 10° E visible
22 Sep -1.6 04:42:53 30° E 04:42:53 30° E 04:44:48 10° E visible
22 Sep -3.3 06:15:45 18° W 06:18:10 84° S 06:21:31 10° E visible
23 Sep -3.4 05:28:48 64° WSW 05:29:15 83° S 05:32:35 10° E visible
24 Sep -1.4 04:41:51 29° E 04:41:51 29° E 04:43:38 10° E visible
24 Sep -3.3 06:14:43 19° W 06:16:59 72° S 06:20:18 10° ESE visible
25 Sep -3.5 05:27:46 74° WSW 05:28:00 81° S 05:31:20 10° E visible
26 Sep -1.1 04:40:51 24° E 04:40:51 24° E 04:42:19 10° E visible
26 Sep -3.0 06:13:43 22° W 06:15:34 49° SSW 06:18:48 10° SE visible
27 Sep -3.1 05:26:50 59° SSE 05:26:50 59° SSE 05:29:51 10° ESE visible
28 Sep -0.6 04:40:01 16° ESE 04:40:01 16° ESE 04:40:49 10° ESE visible
28 Sep -2.2 06:12:54 24° WSW 06:13:55 29° SSW 06:16:51 10° SSE visible
29 Sep -1.8 05:26:11 27° SSE 05:26:11 27° SSE 05:28:02 10° SE visible
29 Sep -1.0 07:00:05 10° WSW 07:00:54 11° SW 07:01:42 10° SSW visible
